TimeEST,TemperatureF,Dew PointF,Humidity,Sea Level PressureIn,VisibilityMPH,Wind Direction,Wind SpeedMPH,Gust SpeedMPH,PrecipitationIn,Events,Conditions,WindDirDegrees,DateUTC
12:53 AM,28.0,21.0,75,30.04,10.0,SSW,9.2,-,N/A,,Mostly Cloudy,200,2012-11-25 05:53:00
1:53 AM,28.0,21.0,75,30.00,10.0,SSW,8.1,18.4,N/A,,Overcast,200,2012-11-25 06:53:00
2:53 AM,28.9,21.0,72,29.99,9.0,South,9.2,-,N/A,,Overcast,190,2012-11-25 07:53:00
3:53 AM,28.9,21.0,72,29.95,8.0,South,9.2,-,N/A,,Overcast,170,2012-11-25 08:53:00
4:53 AM,28.9,21.9,75,29.90,8.0,South,9.2,-,N/A,,Overcast,180,2012-11-25 09:53:00
5:53 AM,28.9,21.9,75,29.91,8.0,South,10.4,-,N/A,,Overcast,190,2012-11-25 10:53:00
6:53 AM,28.9,21.9,75,29.89,8.0,South,9.2,-,N/A,,Clear,190,2012-11-25 11:53:00
7:19 AM,28.4,21.2,74,29.86,8.0,South,8.1,-,N/A,,Mostly Cloudy,180,2012-11-25 12:19:00
7:53 AM,28.9,23.0,78,29.88,7.0,South,8.1,-,N/A,,Overcast,180,2012-11-25 12:53:00
8:53 AM,30.0,23.0,75,29.89,6.0,South,5.8,-,N/A,,Haze,190,2012-11-25 13:53:00
9:53 AM,30.9,24.1,76,29.88,6.0,South,8.1,-,N/A,,Haze,180,2012-11-25 14:53:00
10:53 AM,34.0,27.0,75,29.88,7.0,South,4.6,-,N/A,,Overcast,190,2012-11-25 15:53:00
11:53 AM,37.9,28.9,70,29.88,8.0,West,9.2,-,N/A,,Overcast,280,2012-11-25 16:53:00
12:53 PM,41.0,30.0,65,29.88,9.0,West,9.2,-,N/A,,Overcast,260,2012-11-25 17:53:00
1:53 PM,39.0,28.9,67,29.88,8.0,West,11.5,-,N/A,,Mostly Cloudy,260,2012-11-25 18:53:00
2:53 PM,39.0,30.0,70,29.90,9.0,West,10.4,-,N/A,,Mostly Cloudy,260,2012-11-25 19:53:00
3:16 PM,37.4,28.4,70,29.88,9.0,West,9.2,16.1,N/A,,Mostly Cloudy,270,2012-11-25 20:16:00
3:53 PM,37.9,28.9,70,29.91,9.0,West,10.4,-,N/A,,Partly Cloudy,270,2012-11-25 20:53:00
4:53 PM,37.0,28.9,73,29.93,9.0,WNW,8.1,-,N/A,,Partly Cloudy,290,2012-11-25 21:53:00
5:53 PM,37.0,28.0,70,29.94,10.0,NW,5.8,-,N/A,,Scattered Clouds,310,2012-11-25 22:53:00
6:53 PM,37.0,28.0,70,29.96,10.0,WNW,3.5,-,N/A,,Scattered Clouds,300,2012-11-25 23:53:00
7:53 PM,28.0,25.0,88,29.97,7.0,Calm,Calm,-,N/A,,Clear,0,2012-11-26 00:53:00
8:53 PM,27.0,25.0,92,30.00,7.0,Calm,Calm,-,N/A,,Partly Cloudy,0,2012-11-26 01:53:00
9:53 PM,30.0,28.0,92,30.00,6.0,Calm,Calm,-,N/A,,Mostly Cloudy,0,2012-11-26 02:53:00
10:53 PM,39.9,28.0,63,30.02,10.0,WNW,9.2,-,N/A,,Mostly Cloudy,300,2012-11-26 03:53:00
11:53 PM,39.0,28.9,67,30.04,10.0,WNW,6.9,-,N/A,,Mostly Cloudy,300,2012-11-26 04:53:00